ATLAS 5 CENTAUR DEB, 44664

Orbit data source: Space-Track

ATLAS 5 CENTAUR DEB, 44664 is space debris in HEO originally from a launch on Wed, 17 Oct 2018 UTC launched from the Air Force Eastern Test Range (AFETR). Debris objects in space refer to the collection of defunct objects orbiting the Earth. Examples of debris include non-operational satellites, rocket bodies, and fragments generated from explosions, collisions, or faulty payload assembly.

Loading next visibility...
Identifier
44664, 2018-079AA
Orbit
HEO
Last TLE update
1 year ago
Origin
Flag of USUnited Launch Alliance/Lockheed Martin (US)
Manufacturer
ULA Decatur
Mission
Spacecraft
Bus & Motor
Unknown
Mass
Unknown
Launch date (UTC)
2018-10-17 (7 years ago)
Launch vehicle
Unknown
Launch site
Air Force Eastern Test Range (AFETR)
Object type
Payload
Rocket body
Debris
Shape & HBR
Unknown
Radar Cross Section
RCS unknown

Expand to show TLE details & history

TLE from 1 year ago
0 ATLAS 5 CENTAUR DEB
1 44664U 18079AA  24190.17350872 -.00000110  00000-0  00000-0 0  9991
2 44664  10.2312 125.1662 5129895 148.4729 256.1913  1.69334433 17227
Epoch: 2024-07-08T04:09Z
TLE epoch observation values (Epoch: 2024-07-08T04:09:51.153Z)
Latitude
0.00001°
Longitude
135.95587°
Altitude
32,616.813 km
Speed
2.653 km/s
True Right ascension
08h 20m 07s
True Declination
0° 00' 00"
Sunlit
Object was in daylight at epoch
Visualization orbit readout
Latitude
2.60839°
Longitude
114.43339°
Altitude
36,335.939 km
Speed
2.293 km/s
Apparent Right ascension
06h 41m 14s
Apparent Declination
-2° 35' 59"
Sunlit
Object is in daylight
Visualization observer readout
Local Sidereal Time
16:44:55
Azimuth
317.264° NNW
Elevation
-44.326°
Doppler factor
1
Orbital elements
Apogee altitude
38,610.941 km
Perigee altitude
8,103.228 km
Semi-major axis
29,735.221 km
Eccentricity
0.51299
Inclination
10.2312°
RAAN
125.1662°
Arg. of periapsis
148.4729°
True anomaly
Unknown
Mean anomaly
256.1913°
Eccentric anomaly
Unknown
Mean motion
0.42329 °/min
Orbital period
850.48 mins
BSTAR
0
Loading maneuver chart data...
Loading SW <> Apogee altitude chart data...

ATLAS 5 CENTAUR DEB Visibility forecast

Observer location: undefined°, undefined°

Span
Click to sort rows by Start time (UTC) header in descending order
Start Az.
Max El. time (UTC)
Max El. Az.
Max El.
End time (UTC)
End Az.
783 mins2025-07-03 14:42:29.566Z216.957° SW2025-07-03 21:16:29.566Z201.085° SSW37.236°2025-07-04 03:45:29.566Z127.42° SE
|